[[{"header":{"parameterUnit":"m.s-1","parameterCategory":1,"la1":30.2991,"la2":30.254,"lo1":-89.0895,"lo2":-89.0444,"dy":0.0017,"dx":0.0017,"nx":28,"ny":28,"refTime":"2025-12-15T03:00:00:Z","depth":0,"parameterNumber":2,"parameterNumberName":"U-component_of_WINDS"},"data":[0,0,0,0,0,0,0,0,0,0,0,0,0,0,0,0,0,0,0,0,0,0,0,0,0,0,0,0,0,0,0,0,0,0,0,0,0,0,0,0,0,0,0,0,0,0,0,0,0,0,0,0,0,0,0,0,0,0,-2.8397,-2.8397,0,-2.8399,-2.8399,-2.8399,-2.831,-2.8307,-2.8305,-2.8303,-2.8306,-2.8308,-2.831,0,0,0,0,0,0,0,0,0,0,0,0,0,-2.8317,-2.8319,-2.8397,-2.8397,-2.8397,-2.8399,-2.8399,-2.8399,-2.831,-2.8307,-2.8304,-2.8302,-2.8305,-2.8308,-2.831,0,0,0,0,0,0,0,0,0,0,0,0,0,-2.8339,-2.8319,-2.8397,-2.8353,-2.8349,-2.8399,-2.8399,-2.8399,-2.8311,-2.8307,-2.8304,-2.83,-2.8304,-2.8307,-2.8311,-2.8403,0,0,-2.8321,-2.8323,0,0,0,0,0,0,0,0,-2.8338,-2.8342,-2.836,-2.8356,-2.8352,-2.8351,-2.8372,-2.8401,-2.8312,-2.8326,-2.8303,-2.8299,-2.8324,-2.8325,-2.8333,-2.8404,-2.8404,-2.8322,-2.8324,-2.8325,-2.8326,0,0,0,0,0,0,0,-2.8336,-2.8341,-2.8398,-2.836,-2.8355,-2.8333,-2.8333,-2.8377,-2.8345,-2.8324,-2.8318,-2.8319,-2.8321,-2.833,-2.8333,-2.8404,-2.8322,-2.8325,-2.8327,-2.8328,-2.8549,-2.8553,0,0,0,0,0,0,-2.8341,-2.8341,-2.8398,-2.8398,-2.8336,-2.8338,-2.8337,-2.8355,-2.8344,-2.8339,-2.8322,-2.8315,-2.8326,-2.8329,-2.8333,-2.8439,-2.8325,-2.8328,-2.833,-2.8545,-2.855,-2.8554,0,0,0,0,0,0,-2.8339,-2.8347,-2.8398,-2.8368,-2.8372,-2.8343,-2.8364,-2.8357,-2.8366,-2.8342,-2.8336,-2.8338,-2.8324,-2.8328,-2.8386,-2.8438,-2.833,-2.8333,-2.8541,-2.8547,-2.8552,-2.8654,0,0,0,0,0,0,-2.8337,-2.8347,-2.8382,-2.8369,-2.8374,-2.8452,-2.8367,-2.8359,-2.8372,-2.8363,-2.8355,-2.8351,-2.8321,-2.8382,-2.839,-2.8441,-2.8336,-2.8536,-2.8543,-2.855,-2.8646,-2.8663,-2.8677,0,0,0,0,0,-2.8335,-2.8411,-2.8384,-2.8391,-2.8417,-2.8455,-2.8458,-2.8422,-2.8377,-2.8411,-2.8396,-2.8351,-2.8432,-2.8388,-2.8397,-2.845,-2.8532,-2.8541,-2.8549,-2.8639,-2.8659,-2.8677,0,0,0,0,0,0,-2.8431,-2.8408,-2.8378,-2.8452,-2.8456,-2.844,-2.8482,-2.8445,-2.8462,-2.8452,-2.8407,-2.8407,-2.8472,-2.8467,-2.8419,-2.8538,-2.8474,-2.8485,-2.8539,-2.8558,-2.8574,-2.8573,-2.8339,0,0,0,0,0,-2.846,-2.8492,-2.8471,-2.8539,-2.8542,-2.8512,-2.8527,-2.8499,-2.8502,-2.8503,-2.8492,-2.8496,-2.8522,-2.854,-2.8563,-2.8645,-2.8642,-2.8686,-2.8701,-2.8714,-2.8724,-2.8766,-2.8785,-2.8582,-2.8582,-2.8582,0,0,-2.8522,-2.8514,-2.8537,-2.8558,-2.8557,-2.8592,-2.8514,-2.8554,-2.8579,-2.8509,-2.8563,-2.8555,-2.8557,-2.8627,-2.8658,-2.8625,-2.8779,-2.8725,-2.8736,-2.8738,-2.8777,-2.8796,-2.8813,-2.8588,-2.8587,-2.8586,0,0,-2.8652,-2.8649,-2.8704,-2.8706,-2.8706,-2.8685,-2.8699,-2.8688,-2.868,-2.8734,-2.8682,-2.8711,-2.8757,-2.876,-2.8767,-2.8898,-2.8857,-2.8907,-2.8987,-2.9029,-2.9045,-2.9059,-2.9104,-2.9121,-2.8917,-2.8917,-2.8917,0,-2.8728,-2.8777,-2.8738,-2.8781,-2.8791,-2.8729,-2.8785,-2.8788,-2.8796,-2.8805,-2.8768,-2.8823,-2.882,-2.889,-2.8922,-2.8931,-2.8944,-2.8907,-2.9046,-2.9059,-2.9072,-2.9115,-2.9132,-2.8923,-2.8922,-2.8922,-2.8921,0,-2.8871,-2.8906,-2.8951,-2.8959,-2.8975,-2.9024,-2.8992,-2.9013,-2.8984,-2.8967,-2.9022,-2.9016,-2.9036,-2.9051,-2.9023,-2.9117,-2.9096,-2.9054,-2.8988,-2.9098,-2.9137,-2.9154,-2.8931,-2.8929,-2.8927,-2.8926,0,0,-2.9061,-2.9046,-2.9063,-2.9066,-2.9062,-2.9088,-2.9134,-2.9153,-2.9172,-2.918,-2.9217,-2.9257,-2.9217,-2.9226,-2.9198,-2.9235,-2.9338,-2.9187,-2.9187,-2.9214,-2.9439,-2.9471,-2.949,-2.9311,-2.9314,-2.9316,-2.9439,0,-2.9185,-2.9263,-2.9228,-2.9309,-2.9341,-2.9283,-2.9323,-2.9325,-2.9311,-2.9335,-2.932,-2.9348,-2.9294,-2.9299,-2.9333,-2.9318,-2.9382,-2.9309,-2.9344,-2.9346,-2.9344,-2.9511,-2.9544,-2.966,-2.9454,-2.9457,-2.9459,0,-2.9341,-2.9354,-2.9439,-2.9428,-2.944,-2.9476,-2.949,-2.9515,-2.9516,-2.9503,-2.9513,-2.9477,-2.9521,-2.9457,-2.9517,-2.9468,-2.9481,-2.9475,-2.9479,-2.948,-2.9408,-2.9515,-2.9696,-2.9713,-2.9483,-2.9481,-2.9479,0,-2.9469,-2.9508,-2.9563,-2.9568,-2.9557,-2.9584,-2.9581,-2.9578,-2.9592,-2.9604,-2.9613,-2.9631,-2.9641,-2.9656,-2.9625,-2.9581,-2.969,-2.9623,-2.968,-2.9681,-2.9704,-2.9703,-2.9889,-2.9715,-2.9715,-2.9714,-2.9714,0,-2.9611,-2.9664,-2.962,-2.9654,-2.9712,-2.9673,-2.9731,-2.9722,-2.972,-2.9751,-2.9702,-2.9732,-2.9691,-2.9717,-2.9693,-2.9746,-2.9752,-2.9742,-2.9735,-2.9746,-2.9747,-2.9752,-2.9743,-2.9719,-2.9718,-2.9717,-2.9716,0,-2.9763,-2.9736,-2.9792,-2.9777,-2.9775,-2.9818,-2.9805,-2.9836,-2.9819,-2.9858,-2.9865,-2.9838,-2.9866,-2.9838,-2.9864,-2.9848,-2.9919,-2.9901,-2.9919,-2.9913,-2.9971,-2.9965,-3.0166,-3.0189,-3.0002,-3.0004,-3.0006,0,-2.9855,-2.9894,-2.9884,-2.99,-2.99,-2.9928,-2.9941,-2.9904,-2.992,-2.9924,-2.9954,-2.9978,-2.9995,-3.0042,-3.0025,-3.0045,-3.0026,-3.0095,-3.0029,-3.0038,-3.0025,-3.0023,-3.0026,-3.0108,-3.011,-3.0112,-3.0114,0,-3.002,-3.0004,-3.0025,-3.0041,-3.0058,-3.007,-3.0077,-3.0094,-3.0055,-3.0075,-3.0103,-3.0116,-3.0143,-3.0167,-3.0182,-3.0179,-3.014,-3.0135,-3.0149,-3.0159,-3.0167,-3.0162,-2.9954,-3.013,-3.0129,-3.0127,-3.0126,-3.0126,-3.0143,-3.0175,-3.0173,-3.0197,-3.0199,-3.0207,-3.0234,-3.022,-3.0243,-3.0261,-3.0238,-3.0272,-3.0271,-3.0287,-3.0289,-3.0315,-3.0285,-3.0306,-3.0311,-3.0316,-3.0324,-3.0165,-3.0318,-3.0317,-3.0317,-3.0316,-3.0316,0,-3.0305,-3.03,-3.0323,-3.0334,-3.0354,-3.0316,-3.0322,-3.034,-3.0371,-3.0374,-3.0391,-3.0423,-3.0446,-3.0431,-3.045,-3.0474,-3.0457,-3.0481,-3.0478,-3.0477,-3.035,-3.0335,-3.0494,-3.0494,-3.0494,-3.0494,-3.0494,-3.0494,-3.039,-3.0442,-3.0427,-3.0478,-3.0473,-3.0506,-3.0512,-3.0519,-3.0521,-3.0559,-3.0577,-3.0567,-3.0563,-3.0581,-3.0601,-3.0596,-3.0605,-3.0635,-3.0623,-3.0504,-3.0486,-3.047,-3.0455,-3.0637,-3.0637,-3.0748,-3.0749,-3.075]},{"header":{"parameterUnit":"m.s-1","parameterCategory":1,"la1":30.2991,"la2":30.254,"lo1":-89.0895,"lo2":-89.0444,"dy":0.0017,"dx":0.0017,"nx":28,"ny":28,"refTime":"2025-12-15T03:00:00:Z","depth":0,"parameterNumber":3,"parameterNumberName":"V-component_of_WINDS"},"data":[0,0,0,0,0,0,0,0,0,0,0,0,0,0,0,0,0,0,0,0,0,0,0,0,0,0,0,0,0,0,0,0,0,0,0,0,0,0,0,0,0,0,0,0,0,0,0,0,0,0,0,0,0,0,0,0,0,0,0.15,0.15,0,0.1508,0.1508,0.1508,0.1489,0.1488,0.1487,0.1487,0.1494,0.1494,0.1495,0,0,0,0,0,0,0,0,0,0,0,0,0,0.1468,0.1469,0.15,0.15,0.15,0.1508,0.1508,0.1508,0.1489,0.1488,0.1487,0.1487,0.1493,0.1494,0.1495,0,0,0,0,0,0,0,0,0,0,0,0,0,0.148,0.1469,0.15,0.1492,0.1491,0.1508,0.1508,0.1508,0.1489,0.1488,0.1487,0.1486,0.1493,0.1494,0.1495,0.152,0,0,0.1499,0.1499,0,0,0,0,0,0,0,0,0.1479,0.1481,0.1493,0.1492,0.1492,0.1496,0.1499,0.1512,0.1489,0.149,0.1487,0.1486,0.1495,0.1496,0.1499,0.1521,0.1521,0.1499,0.1499,0.15,0.15,0,0,0,0,0,0,0,0.1478,0.148,0.1503,0.1493,0.1492,0.1487,0.1488,0.1502,0.1497,0.149,0.1488,0.1489,0.1495,0.1498,0.1499,0.1521,0.1499,0.15,0.15,0.1501,0.1565,0.1566,0,0,0,0,0,0,0.1479,0.148,0.1503,0.1503,0.1483,0.1489,0.1489,0.1496,0.1497,0.1497,0.149,0.1488,0.1497,0.1498,0.15,0.1531,0.15,0.1501,0.1502,0.1564,0.1565,0.1566,0,0,0,0,0,0,0.1478,0.1481,0.1503,0.1491,0.1494,0.149,0.1498,0.1496,0.15,0.1498,0.1497,0.1495,0.1496,0.1498,0.1516,0.1531,0.1501,0.1502,0.1563,0.1564,0.1566,0.1592,0,0,0,0,0,0,0.1477,0.1481,0.149,0.1492,0.1494,0.1519,0.1498,0.1497,0.1502,0.15,0.1502,0.1501,0.1496,0.1514,0.1517,0.1532,0.1503,0.1561,0.1564,0.1565,0.159,0.1594,0.1598,0,0,0,0,0,0.1476,0.1497,0.1491,0.1494,0.1506,0.152,0.1521,0.1515,0.1504,0.1513,0.1512,0.1501,0.1528,0.1516,0.1519,0.1534,0.1561,0.1563,0.1565,0.1588,0.1594,0.1598,0,0,0,0,0,0,0.1497,0.1497,0.149,0.1512,0.1516,0.1517,0.1529,0.1521,0.1528,0.1525,0.1517,0.1517,0.1537,0.1537,0.1524,0.156,0.1542,0.1545,0.1559,0.1564,0.1568,0.1568,0.1504,0,0,0,0,0,0.1504,0.1515,0.1514,0.1534,0.1536,0.1532,0.1538,0.1533,0.1536,0.1538,0.1537,0.1541,0.1551,0.1557,0.1565,0.1589,0.159,0.1601,0.1605,0.1609,0.1612,0.1626,0.1632,0.1574,0.1574,0.1574,0,0,0.1519,0.152,0.1528,0.1538,0.1541,0.1553,0.1534,0.1547,0.1556,0.154,0.1557,0.1557,0.156,0.1582,0.1591,0.1583,0.1628,0.1612,0.1615,0.1616,0.1629,0.1635,0.1639,0.1576,0.1575,0.1575,0,0,0.1552,0.1554,0.1571,0.1575,0.1579,0.1576,0.158,0.1582,0.1582,0.1599,0.1588,0.1598,0.1614,0.1617,0.1621,0.1657,0.1648,0.166,0.1682,0.1696,0.1701,0.1705,0.1719,0.1724,0.1663,0.1663,0.1663,0,0.157,0.1588,0.1581,0.1596,0.1601,0.1587,0.1605,0.1608,0.1615,0.1619,0.1609,0.163,0.1631,0.1654,0.1663,0.1666,0.1671,0.166,0.17,0.1704,0.1708,0.1722,0.1727,0.1664,0.1664,0.1664,0.1664,0,0.1611,0.1624,0.1637,0.1645,0.1652,0.1668,0.1663,0.167,0.1664,0.1663,0.1681,0.1682,0.1691,0.1696,0.169,0.1718,0.1713,0.1702,0.1685,0.1715,0.1728,0.1733,0.1667,0.1666,0.1666,0.1665,0,0,0.1658,0.1663,0.1668,0.1672,0.1676,0.1686,0.1701,0.1711,0.1718,0.1723,0.1737,0.1751,0.1741,0.1745,0.1739,0.1751,0.1782,0.1739,0.1739,0.1748,0.1815,0.1825,0.1831,0.1775,0.1776,0.1777,0.1815,0,0.1693,0.1721,0.1715,0.1742,0.1754,0.1742,0.1755,0.1759,0.1758,0.1768,0.1766,0.1778,0.1763,0.1766,0.1777,0.1776,0.1795,0.1773,0.1788,0.1789,0.179,0.1837,0.1847,0.1883,0.182,0.1821,0.1821,0,0.1737,0.1746,0.1774,0.1778,0.1783,0.1795,0.1804,0.1814,0.1818,0.1816,0.1822,0.1814,0.183,0.1811,0.1833,0.1818,0.1824,0.1824,0.1825,0.1828,0.1808,0.1842,0.1894,0.19,0.1829,0.1828,0.1828,0,0.1772,0.1789,0.1809,0.1813,0.1817,0.1826,0.1828,0.1832,0.1838,0.1846,0.185,0.1859,0.1864,0.1871,0.1866,0.1853,0.1889,0.187,0.1889,0.1889,0.1898,0.1898,0.1953,0.1899,0.1899,0.1899,0.1899,0,0.1812,0.1831,0.1825,0.1837,0.1858,0.1851,0.1871,0.1871,0.1875,0.1887,0.1875,0.1887,0.1879,0.189,0.1886,0.1905,0.1907,0.1907,0.1906,0.1909,0.1909,0.1914,0.1912,0.19,0.19,0.19,0.19,0,0.1854,0.1851,0.1872,0.1875,0.1876,0.1891,0.1893,0.1904,0.1902,0.1918,0.1921,0.1918,0.1931,0.1926,0.1938,0.1936,0.1961,0.1956,0.196,0.196,0.1979,0.1978,0.2041,0.205,0.1988,0.1989,0.1989,0,0.1881,0.1895,0.19,0.1908,0.1911,0.1923,0.193,0.1923,0.1931,0.1938,0.1949,0.196,0.1969,0.199,0.1989,0.1999,0.1995,0.2016,0.1996,0.1999,0.1997,0.1997,0.1999,0.202,0.2021,0.2022,0.2022,0,0.193,0.1928,0.1939,0.1949,0.1958,0.1966,0.1973,0.198,0.1973,0.1982,0.1996,0.2003,0.2016,0.2028,0.2038,0.2039,0.203,0.2028,0.2033,0.2038,0.204,0.2041,0.1973,0.2027,0.2027,0.2026,0.2026,0.2026,0.1967,0.1979,0.1985,0.1997,0.2002,0.2009,0.202,0.202,0.2031,0.2042,0.2037,0.2053,0.2057,0.2069,0.2072,0.2084,0.2076,0.2083,0.2085,0.2087,0.2091,0.2037,0.2085,0.2085,0.2085,0.2085,0.2085,0,0.2016,0.2019,0.2031,0.2042,0.2052,0.2042,0.2049,0.2058,0.2072,0.2078,0.2087,0.2103,0.2114,0.2114,0.2125,0.2135,0.2131,0.2138,0.2138,0.2139,0.2096,0.2092,0.2141,0.2141,0.2141,0.2141,0.2141,0.2141,0.2044,0.2065,0.2064,0.2088,0.209,0.2106,0.2111,0.2117,0.2122,0.214,0.215,0.215,0.2153,0.2164,0.2175,0.2174,0.2179,0.2189,0.2187,0.2147,0.2142,0.2137,0.2132,0.2189,0.2189,0.2229,0.2229,0.2229]}]]